Skip Page Navigation
NASA JPL Caltech
NASA Logo - Jet Propulsion Laboratory + View the NASA Portal
+ Center for Near-Earth Object Studies
JPL Home Earth Solar System Stars & Galaxies Technology
JPL Solar System Dynamics
BODIES ORBITS EPHEMERIDES TOOLS PHYSICAL DATA DISCOVERY FAQ SITE MAP
JPL Small-Body Database Browser
Search: [ help ]  
452865 (2006 SB292)
Classification: Main-belt Asteroid          SPK-ID: 2452865
Ephemeris | Orbit Diagram | Orbital Elements | Mission Design | Physical Parameters | Discovery Circumstances ]

[ show orbit diagram ]
Orbital Elements at Epoch 2459000.5 (2020-May-31.0) TDB
Reference: JPL 12 (heliocentric ecliptic J2000)
 Element Value Uncertainty (1-sigma)   Units 
e .2144869762576423 7.6214e-08  
a 2.635923479499575 2.9134e-08 au
q 2.070552222735188 2.015e-07 au
i 18.45618764985769 4.6202e-06 deg
node 135.4765339615243 3.0218e-05 deg
peri 219.7423420736096 3.5544e-05 deg
M 79.08989561487783 1.8618e-05 deg
tp 2458657.087478505693
(2019-Jun-22.58747851)
8.18e-05 TDB
period 1563.139093518977
4.28
2.5915e-05
7.095e-08
d
yr
n .2303058003555904 3.8182e-09 deg/d
Q 3.201294736263962 3.5383e-08 au
  Orbit Determination Parameters
   # obs. used (total)      163  
   data-arc span      4865 days (13.32 yr)  
   first obs. used      2006-09-27  
   last obs. used      2020-01-22  
   planetary ephem.      DE431  
   SB-pert. ephem.      SB431-N16  
   condition code      0  
   norm. resid. RMS      .61136  
   source      ORB  
   producer      Otto Matic  
   solution date      2020-Feb-26 11:37:41  

Additional Information
 Earth MOID = 1.09156 au 
 Jupiter MOID = 2.27871 au 
 T_jup = 3.293 
[ show covariance matrix ]

Ephemeris | Orbit Diagram | Orbital Elements | Mission Design | Physical Parameters | Discovery Circumstances ]

Physical Parameter Table
Parameter Symbol Value Units Sigma Reference Notes
absolute magnitude H 16.5   n/a MPO503597  

452865 (2006 SB292)          Discovered 2006-Sep-27 by CSS at Catalina
Reference: Last Updated: 2016-01-04

Alternate Designations
 2006 SB292 = 2010 PJ2 
Ephemeris | Orbit Diagram | Orbital Elements | Mission Design | Physical Parameters | Discovery Circumstances ]
ABOUT SSD CREDITS/AWARDS PRIVACY/COPYRIGHT GLOSSARY LINKS
FirstGov 2020-Dec-02 12:11 UT
(server date/time)  
NASA Home Page
Site Manager:   Ryan S. Park
Webmaster  Alan B. Chamberlin